User: anonymous   Login
Location: Unspecified
(42.3650°N, 71.1030°W)
Time: 12:12:04
(UTC+00:00)
Language:

SR - Orbit

View from above orbital plane
View from above orbital plane
View from above satellite
View from above satellite

Ground track
Ground track

The orbit data is extracted from the following two-line orbital elements,

1 00046U 60007B   24176.90973962  .00001593  00000-0  32848-3 0  9994
2 00046  66.6903  33.9725 0195508 116.2947 245.8394 14.52021071352018
Epoch (UTC): 24 June 2024 21:50:01
Eccentricity: 0.0195508
inclination: 66.6903°
perigee height: 580 km
apogee height: 858 km
right ascension of ascending node: 33.9725°
argument of perigee: 116.2947°
revolutions per day: 14.52021071
mean anomaly at epoch: 245.8394°
orbit number at epoch: 35201

The dashed part of the orbit path shows where the satellite is in the earth's shadow,  

DLR